Васкнарва

Эстония     59°00′05″N   27°44′21″E
темп.,
°C
ветер,
м/с
пор.,
м/с
влажн.,
%
обл.,
%
осадки,
мм/ч
давл.,
гПа
погр.,
м
8 мая, сб
сб800:00+4з1191100 0.0 100410
03:00+4с1192100 0.0 100415
06:00+4зсз1296100 0.9 1003110
09:00+2зсз4898100 6.8 1004363
12:00+4зюз5785100 1.6 1005766
15:00+4з3589100 2.0 1007466
18:00+6сз4777100 0.4 1009630
21:00+4з35775 0.5 101068
9 мая, вс
вс900:00+2зсз512795 0.0 1012326
03:00+2зсз411782 0.0 1013309
06:00+1зсз38821 0.0 1015198
09:00+5з35690 0.0 1017332
12:00+7ююз466659 0.0 1018585
15:00+8ююз5757100 0.0 1018811
18:00+9ююз375886 0.0 1018517
21:00+7ю336570 0.0 101836
10 мая, пн
пн1000:00+7ююз51173100 0.0 1018278
03:00+6ююв61393100 2.4 1018484
06:00+7ю7148692 0.3 1017361
09:00+8ю6128521 0.4 1019314
12:00+11ю6107796 0.0 1019414
15:00+14ю6107098 0.0 1019727
18:00+13ю51172100 0.0 1020357
21:00+12ю61378100 0.0 1020231
11 мая, вт
вт1100:00+11ю71582100 0.0 1022315
03:00+10ю613887 0.0 1022275
06:00+10ю61385100 0.0 1022277
09:00+11ю713755 0.0 1023364
12:00+13ю7126376 0.0 1023515
15:00+15ю711562 0.0 1023672
18:00+15ююв611580 0.0 1022647
21:00+13ююв511660 0.0 1022237
12 мая, ср
ср1200:00+11ююв411750 0.0 1023209
03:00+10ююв49865 0.0 1023172
06:00+9ююв38866 0.0 1023116
09:00+12ююв4770100 0.0 1023294
12:00+14ю4663100 0.0 1023555
15:00+15ю2561100 0.0 1022668
18:00+17юв256473 0.0 1021791
21:00+15вюв36774 0.0 102185